Flag for Brazil Weather past 2 weeks in Foz do Iguaçu, Paraná, Brazil

Now
70 °F

Low clouds.


Feels Like: 70 °F
Forecast: 63 / 78 °F
Wind: 3 mph from West

Location: Foz Do Iguacu Aeroporto


UV Index: 5 (Moderate)

Visibility: N/A


Pressure: 30.07 "Hg

Humidity: 88%

Dew point: 66 °F

Location of Foz do IguaçuLocation

Historic Weather in Foz do Iguaçu

°F

Foz do Iguaçu temperature yesterday

Maximum temperature yesterday: 79 °F (at 4:00 PM)
Minimum temperature yesterday: 68 °F (at 3:00 AM)
Average temperature yesterday: 71 °F

Past Weeks' High & Low Weather Summary

 TemperatureHumidityPressure
High91 °F (Apr 8, 3:00 PM)100% (Apr 9, 12:00 PM)30.18 "Hg (Apr 9, 12:00 PM)
Low34 °F (Apr 9, 4:00 PM)28% (Apr 9, 7:00 PM)29.71 "Hg (Apr 11, 6:00 PM)
Average69 °F87%29.96 "Hg
* Reported Apr 8 12:00 Noon — Apr 23 12:00 Noon, Foz do Iguaçu, Weather by CustomWeather, © 2014

Note: Actual official high and low records may vary slightly from our data, if they occured in-between our weather recording intervals... More about our weather records

Advertising

Historic Weather Conditions — Data for Previous 24 hours

 ConditionsComfort  
Time TempWeatherWind HumidityBarometerVisibility
12:00 PM
Apr 23
70 °FLow clouds.3 mph88%30.07 "HgN/A
11:00 AM68 °FLow clouds.2 mph94%30.07 "HgN/A
10:00 AM66 °FLow clouds.3 mph100%30.07 "Hg2 mi
9:00 AM64 °FLow clouds.3 mph100%30.07 "Hg1 mi
8:00 AM64 °FFog.5 mph94%30.04 "Hg1 mi
7:00 AM64 °FFog.2 mph94%N/A1 mi
6:00 AM64 °FFog.No wind100%30.01 "Hg0 mi
5:00 AM64 °FFog.2 mph100%30.01 "Hg1 mi
4:00 AM66 °FFog.1 mph94%29.98 "Hg1 mi
3:00 AM64 °FFog.3 mph100%29.98 "Hg1 mi
2:00 AM64 °FFog.No wind100%29.98 "Hg1 mi
1:00 AM64 °FClear.No wind100%30.01 "Hg10 mi
12:00 AM66 °FClear.2 mph100%30.01 "Hg10 mi
11:00 PM
Apr 22
68 °FPassing clouds.2 mph94%29.98 "HgN/A
10:00 PM68 °FPassing clouds.1 mph94%29.92 "HgN/A
9:00 PM70 °FPassing clouds.3 mph94%29.98 "HgN/A
8:00 PM72 °FPassing clouds.3 mph94%29.95 "HgN/A
7:00 PM72 °FPassing clouds.2 mph94%29.92 "HgN/A
6:00 PM75 °FPassing clouds.2 mph83%29.92 "HgN/A
5:00 PM75 °FPartly sunny.2 mph83%29.95 "HgN/A
4:00 PM79 °FPartly sunny.3 mph74%29.92 "HgN/A
3:00 PM77 °FPartly sunny.5 mph79%29.95 "HgN/A
2:00 PM77 °FPartly sunny.5 mph79%29.95 "HgN/A
1:00 PM75 °FPartly sunny.8 mph83%29.98 "HgN/A
12:00 PM75 °FPartly sunny.7 mph83%30.01 "HgN/A
Weather by CustomWeather, © 2014

See weather overview